Regional Weather Roundup
Issued by NWS Sioux Falls, SD

Home | Current Version | Previous Version | Text Only | Print | Product List | Glossary Off
Versions: 1 2 3 4 5 6 7 8 9 10 11 12 13 14 15 16 17 18 19 20 21 22 23 24 25 26 27 28 29 30 31 32 33 34 35 36 37 38 39 40 41 42 43 44 45 46 47 48 49 50

000
ASUS43 KFSD 301110
RWRFSD

WEATHER ROUNDUP FOR SE SOUTH DAKOTA/SW MINNESOTA/NW IOWA
NATIONAL WEATHER SERVICE SIOUX FALLS SD
600 AM CDT WED JUL 30 2014

NOTE: "FAIR" INDICATES FEW OR NO CLOUDS BELOW 12,000 FEET WITH NO
SIGNIFICANT WEATHER AND OR OBSTRUCTIONS TO VISIBILITY.


SDZ038>040-050-052>070-301200-
SOUTHEAST SOUTH DAKOTA

CITY           SKY/WX    TMP DP  RH WIND       PRES   REMARKS
CHAMBERLAIN    CLEAR     51  48  87 CALM      30.16S
HURON          FOG       49  48  97 W3        30.15S VSB 1/4
MADISON        FAIR      50  50 100 NW6       30.16S
MITCHELL       CLEAR     52  50  93 CALM      30.16R
SIOUX FALLS    CLEAR     54  51  90 CALM      30.15S
WINNER         FAIR      57  49  74 W6        30.16S
YANKTON        CLEAR     54  52  94 CALM      30.15R
$$

MNZ071-072-080-081-089-090-097-098-301200-
SOUTHWEST MINNESOTA

CITY           SKY/WX    TMP DP  RH WIND       PRES   REMARKS
FAIRMONT       CLEAR     55  50  82 NW6       30.11S
JACKSON        CLEAR     54  50  87 W5        30.13S
LUVERNE        CLEAR     54  50  87 CALM      30.15S
MARSHALL       CLEAR     54  48  82 W6        30.12S
MONTEVIDEO     CLEAR     54  52  94 NW5       30.13S
PIPESTONE      CLEAR     55  52  88 CALM      30.15S
REDWOOD FALLS  CLEAR     55  53  93 NW7       30.11S
TRACY          CLEAR     58  53  82 W3        30.14R
WINDOM         CLEAR     54  52  94 W6        30.13R
WORTHINGTON    CLEAR     54  48  82 W5        30.15R
$$

IAZ001>003-012>014-020>022-031-032-NEZ013-014-SDZ071-301200-
NORTHWEST IOWA

CITY           SKY/WX    TMP DP  RH WIND       PRES   REMARKS
CHEROKEE       CLEAR     50  50 100 CALM      30.14R
DENISON        CLEAR     50  50 100 CALM      30.12R
ESTHERVILLE    CLEAR     54  52  93 NW7       30.12R
LE MARS        CLEAR     50  50 100 CALM      30.15R
ORANGE CITY    CLEAR     55  50  82 CALM      30.14S
SHELDON        CLEAR     48  48 100 N3        30.13S
SIOUX CITY     CLEAR     51  50  96 CALM      30.15R
SPENCER        CLEAR     49  47  93 NW5       30.13S
STORM LAKE     CLEAR     57  55  94 NW6       30.14R
$$

ABBREVIATIONS USED IN REMARKS
   TC - TEMPERATURE IN CELSIUS
  WCI - WIND CHILL INDEX
   HX - HEAT INDEX
  VSB - VISIBILITY



USA.gov is the U.S. government's official web portal to all federal, state and local government web resources and services.